NNS 30100

operational
NORAD ID: 2401 Int'l Des: 1966-076 Owner: NAVAIR Country: US
LEOCIRCULARPOLAR

NNS 30100について

説明を読み込み中...

リアルタイム位置

3D地球を読み込み中...

次回通過

高度履歴

Altitude vs Time

uPlot chart will show altitude changes over time

軌道要素

1 02401U 66076A 26061.00902764 .00000167 00000-0 22870-3 0 9991
2 02401 88.8393 78.3799 0030567 255.2750 161.3135 13.53930496936593
Epoch: Mar 2, 2026 • Age: 32 hours

現在のステータス

高度 1084.8 km
速度 7.31 km/s
衛星直下点 63.41°N, 31.82°W
タイプ other

大規模コンステレーション

Loading constellations...